Weather at Arquilhué Airport

Public forecast

Using degrees Celsius for public forecast. Weather courtesy of forecast.io.

Closest aviation weather report (METAR) to Arquilhué Airport

Report is more than 6 hours old.

Closest report is Aviador C. Campos Airport, 41.6 nm (77.0 km) E. Retrieved 2020/09/26 13:30 UTC (2 days ago):

SAZY 261330Z 27020G30KT 9999 FEW028 SCT100 SCT200 10/03 Q1018

Closest aviation forecast (TAF) to Arquilhué Airport

Forecast is more than 12 hours old.

Closest forecast is Aviador C. Campos Airport, 41.6 nm (77.0 km) E. Retrieved 2020-04-04 00:45 UTC (6 months ago):

TAF SAZY 032300Z 0400/0424 27010KT 9999 BKN030 TX21/0419Z TN03/0409Z BECMG 0405/0407 27008KT SCT040 BECMG 0408/0410 26005KT CAVOK BECMG 0415/0417 VRB03KT